Location: Durham
(54.7770°N, 1.5720°W)
Time: 18:55:06
(UTC+01:00)

ISS - Visible Passes

Search period start: 23 July 2014 00:00
Search period end: 02 August 2014 00:00
Orbit: 411 x 419 km, 51.6° (Epoch: 23 July)

Date Brightness Start Highest point End Pass type
(mag) Time Alt. Az. Time Alt. Az. Time Alt. Az.
23 Jul -0.9 02:37:11 11° SSE 02:37:31 12° SE 02:38:42 10° ESE visible
23 Jul -2.3 04:10:27 10° SW 04:13:31 33° SSE 04:16:35 10° E visible
24 Jul -2.0 03:22:57 16° SSW 03:24:52 26° SSE 03:27:45 10° E visible
25 Jul -1.7 02:35:49 20° SSE 02:36:16 20° SSE 02:38:49 10° E visible
25 Jul -2.8 04:09:16 10° WSW 04:12:30 44° S 04:15:44 10° E visible
26 Jul -1.0 01:48:40 14° SE 01:48:40 14° SE 01:49:42 10° ESE visible
26 Jul -2.6 03:21:32 16° SW 03:23:48 38° SSE 03:26:58 10° E visible
27 Jul -2.4 02:34:22 28° S 02:35:07 32° SSE 02:38:10 10° E visible
27 Jul -3.0 04:08:14 10° WSW 04:11:31 50° S 04:14:47 10° ESE visible
28 Jul -1.8 01:47:12 23° SE 01:47:12 23° SE 01:49:18 10° E visible
28 Jul -3.0 03:20:03 14° WSW 03:22:47 48° S 03:26:03 10° E visible
29 Jul -0.8 01:00:01 12° ESE 01:00:01 12° ESE 01:00:20 10° ESE visible
29 Jul -2.9 02:32:53 30° SW 02:34:04 43° S 02:37:18 10° E visible
29 Jul -2.9 04:07:17 10° W 04:10:31 45° S 04:13:46 10° ESE visible
30 Jul -2.6 01:45:43 36° SSE 01:45:43 36° SSE 01:48:31 10° E visible
30 Jul -3.0 03:18:35 10° W 03:21:48 49° S 03:25:04 10° ESE visible
31 Jul -1.3 00:58:36 18° ESE 00:58:36 18° ESE 00:59:42 10° E visible
31 Jul -3.1 02:31:27 25° WSW 02:33:04 50° S 02:36:21 10° ESE visible
31 Jul -2.6 04:06:23 10° W 04:09:29 34° SSW 04:12:34 10° SE visible
01 Aug -3.1 01:44:26 47° SSE 01:44:26 47° SSE 01:47:36 10° E visible
01 Aug -2.8 03:17:35 10° W 03:20:47 41° SSW 03:23:58 10° ESE visible
